Weather History for Maastricht, Netherlands

Change the Weather History Date:

Monday, October 29, 2012

  Actual Average Record
Temperature  
Mean Temperature 38 °F -  
Max Temperature 44 °F 47 °F 71 °F (2005)
Min Temperature 34 °F 37 °F 24 °F (1997)
Degree Days  
Heating Degree Days 27    
Moisture  
Dew Point 35 °F    
Average Humidity 81    
Maximum Humidity 100    
Minimum Humidity 47    
Precipitation  
Precipitation 0.08 in 0.09 in - ()
Sea Level Pressure  
Sea Level Pressure 29.88 in    
Wind  
Wind Speed 13 mph ()    
Max Wind Speed 22 mph    
Max Gust Speed -    
Visibility 6.3 miles    
Events Rain    
Averages and records for this station are not official NWS values.
T = Trace of Precipitation, MM = Missing Value Source: Averaged Metar Reports

Daily Weather History Graph

Daily Weather History Graph

Search for Another Location

Airport:

Trip Planner

Search our weather history database for the weather conditions in past years. The results will help you decide how hot, cold, wet, or windy it might be!

Date:

Astronomy

Oct. 29, 2012 Rise Set
Actual Time 7:24 AM CET 5:16 PM CET
Civil Twilight 6:49 AM CET 5:50 PM CET
Nautical Twilight 6:11 AM CET 6:29 PM CET
Astronomical Twilight 5:32 AM CET 7:07 PM CET
Moon 4:55 PM CET (10/29) 7:01 AM CET (10/29)
Length of Visible Light 11h 00m
Length of Day
9h 52m
Full, 100% of the Moon is Illuminated
Oct 29
Full
Oct 29
Full
Nov 7
Last Quarter
Nov 13
New
Nov 20
First Quarter

Hourly Weather History & Observations

Time (CET) Temp. Windchill Dew Point Humidity Pressure Visibility Wind Dir Wind Speed Gust Speed Precip Events Conditions
12:25 AM 37.4 °F 30.8 °F 26.6 °F 65% 29.98 in 6.2 mi South 9.2 mph - N/A   Unknown
12:55 AM 37.4 °F 30.8 °F 26.6 °F 65% 29.98 in 6.2 mi South 9.2 mph - N/A   Unknown
1:00 AM 37 °F - 28 °F 59% 30.02 in 25 mi South 8.9 mph - -   Partly Cloudy
1:25 AM 35.6 °F 29.2 °F 28.4 °F 75% 29.98 in 6.2 mi South 8.1 mph - N/A   Unknown
1:55 AM 37.4 °F 29.3 °F 28.4 °F 70% 29.98 in 6.2 mi South 12.7 mph - N/A   Unknown
2:25 AM 37.4 °F 29.3 °F 26.6 °F 65% 29.98 in 6.2 mi South 12.7 mph - N/A   Unknown
2:55 AM 37.4 °F 29.3 °F 26.6 °F 65% 29.98 in 6.2 mi South 12.7 mph - N/A   Unknown
3:25 AM 37.4 °F 28.2 °F 24.8 °F 60% 29.95 in 6.2 mi South 16.1 mph - N/A   Unknown
3:55 AM 37.4 °F 28.2 °F 24.8 °F 60% 29.95 in 6.2 mi South 16.1 mph - N/A   Unknown
4:00 AM 38 °F - 25 °F 47% 29.97 in 28 mi South 15.7 mph - -   Overcast
4:25 AM 37.4 °F 28.5 °F 24.8 °F 60% 29.95 in 6.2 mi South 15.0 mph - N/A   Unknown
4:55 AM 37.4 °F 28.2 °F 26.6 °F 65% 29.95 in 6.2 mi SSW 16.1 mph - N/A   Unknown
5:25 AM 39.2 °F 30.5 °F 26.6 °F 61% 29.95 in 6.2 mi SSW 16.1 mph - N/A   Unknown
5:55 AM 39.2 °F 30.8 °F 26.6 °F 61% 29.92 in 6.2 mi South 15.0 mph - N/A   Unknown
6:25 AM 39.2 °F 30.8 °F 26.6 °F 61% 29.92 in 6.2 mi SSW 15.0 mph - N/A   Unknown
6:55 AM 39.2 °F 30.8 °F 26.6 °F 61% 29.92 in 6.2 mi SSW 15.0 mph - N/A   Mostly Cloudy
7:00 AM 39 °F - 27 °F 49% 29.95 in 28 mi SSW 15.7 mph - -   Unknown Precipitation
7:25 AM 39.2 °F 30.2 °F 26.6 °F 61% 29.92 in 6.2 mi SSW 17.3 mph - N/A   Scattered Clouds
7:55 AM 39.2 °F 30.5 °F 28.4 °F 65% 29.92 in 6.2 mi SSW 16.1 mph - N/A   Drizzle
8:25 AM 37.4 °F 27.5 °F 32.0 °F 81% 29.92 in 6.2 mi SSW 18.4 mph - N/A Rain Drizzle
8:55 AM 37.4 °F 28.2 °F 32.0 °F 81% 29.92 in 6.2 mi SSW 16.1 mph - N/A   Drizzle
9:25 AM 37.4 °F 28.2 °F 32.0 °F 81% 29.92 in 6.2 mi SSW 16.1 mph - N/A   Drizzle
9:55 AM 37.4 °F 28.2 °F 33.8 °F 87% 29.92 in 6.2 mi SSW 16.1 mph - N/A Rain Light Rain
10:00 AM 37 °F - 33 °F 81% 29.96 in 9 mi SSW 17.9 mph - - Rain Heavy Rain
10:25 AM 37.4 °F 28.5 °F 33.8 °F 87% 29.92 in 4.3 mi SSW 15.0 mph - N/A   Drizzle
10:55 AM 37.4 °F 28.2 °F 35.6 °F 93% 29.92 in 6.2 mi SSW 16.1 mph - N/A   Drizzle
11:25 AM 39.2 °F 30.5 °F 35.6 °F 87% 29.92 in 6.2 mi SSW 16.1 mph - N/A   Light Drizzle
11:55 AM 39.2 °F 30.5 °F 37.4 °F 93% 29.92 in 6.2 mi SSW 16.1 mph - N/A Rain Light Rain
12:25 PM 39.2 °F 30.2 °F 37.4 °F 93% 29.89 in 6.2 mi SSW 17.3 mph - N/A   Overcast
12:55 PM 41.0 °F 32.5 °F 39.2 °F 93% 29.89 in 6.2 mi SSW 17.3 mph - N/A   Overcast
1:00 PM 41 °F - 39 °F 90% 29.92 in 9 mi SSW 17.9 mph - - Rain Light Rain
1:25 PM 41.0 °F 32.8 °F 39.2 °F 93% 29.89 in 6.2 mi SSW 16.1 mph - N/A Rain Light Rain
1:55 PM 41.0 °F 33.1 °F 39.2 °F 93% 29.86 in 6.2 mi SSW 15.0 mph - N/A   Overcast
2:25 PM 41.0 °F 32.8 °F 39.2 °F 93% 29.86 in 6.2 mi SSW 16.1 mph - N/A   Mostly Cloudy
2:55 PM 42.8 °F 35.8 °F 39.2 °F 87% 29.86 in 6.2 mi SSW 13.8 mph - N/A   Drizzle
3:25 PM 42.8 °F 35.8 °F 41.0 °F 93% 29.86 in 6.2 mi SSW 13.8 mph - N/A   Drizzle
3:55 PM 42.8 °F 35.4 °F 41.0 °F 93% 29.83 in 6.2 mi SSW 15.0 mph - N/A   Drizzle
4:00 PM 42 °F - 40 °F 92% 29.87 in 6 mi SSW 15.7 mph - - Rain Drizzle
4:25 PM 41.0 °F 32.8 °F 41.0 °F 100% 29.83 in 5.0 mi SSW 16.1 mph - N/A   Drizzle
4:55 PM 41.0 °F 32.8 °F 41.0 °F 100% 29.83 in 5.0 mi SSW 16.1 mph - N/A   Drizzle
5:25 PM 41.0 °F 33.1 °F 41.0 °F 100% 29.83 in 6.2 mi SSW 15.0 mph - N/A   Drizzle
5:55 PM 41.0 °F 32.8 °F 41.0 °F 100% 29.83 in 6.2 mi SSW 16.1 mph - N/A   Light Drizzle
6:25 PM 41.0 °F 32.8 °F 41.0 °F 100% 29.80 in 6.2 mi SSW 16.1 mph - N/A   Drizzle
6:55 PM 41.0 °F 32.8 °F 41.0 °F 100% 29.80 in 6.2 mi SSW 16.1 mph - N/A   Light Drizzle
7:00 PM 42 °F - 40 °F 90% 29.83 in 9 mi SSW 17.9 mph - - Rain Light Drizzle
7:25 PM 42.8 °F 34.8 °F 39.2 °F 87% 29.80 in 6.2 mi SSW 17.3 mph - N/A   Light Drizzle
7:55 PM 42.8 °F 35.1 °F 39.2 °F 87% 29.80 in 6.2 mi SSW 16.1 mph - N/A   Overcast
8:25 PM 42.8 °F 35.1 °F 39.2 °F 87% 29.80 in 6.2 mi SSW 16.1 mph - N/A Rain Drizzle
8:55 PM 42.8 °F 33.8 °F 39.2 °F 87% 29.80 in 6.2 mi SSW 21.9 mph - N/A   Drizzle
9:25 PM 42.8 °F 34.3 °F 41.0 °F 93% 29.77 in 6.2 mi SSW 19.6 mph - N/A Rain Light Rain
9:55 PM 42.8 °F 34.5 °F 41.0 °F 93% 29.77 in 6.2 mi SSW 18.4 mph - N/A   Drizzle
10:00 PM 42 °F - 41 °F 93% 29.80 in 7 mi SSW 17.9 mph - - Rain Drizzle
10:25 PM 42.8 °F 34.8 °F 41.0 °F 93% 29.77 in 6.2 mi SSW 17.3 mph - N/A Rain Light Rain
10:55 PM 42.8 °F 34.5 °F 41.0 °F 93% 29.74 in 6.2 mi SSW 18.4 mph - N/A Rain Light Rain
11:25 PM 42.8 °F 34.3 °F 41.0 °F 93% 29.74 in 6.2 mi SSW 19.6 mph - N/A Rain Light Rain
11:55 PM 44.6 °F 36.4 °F 42.8 °F 93% 29.71 in 6.2 mi SW 20.7 mph - N/A Rain Light Rain Showers